DW9417 Weather Reports


Display with metric or nautical units.
time (UTC)temp
F
wind
direction
speed
MPH
gust
MPH
rain 1hr
in
rain 24hr
in
rain mn
in
humidity
%
barometer
mb
20260505041541 68 84 0.0 5.0 0.00 0.00 0.00 52 1026.3
20260505040040 67 323 1.0 9.0 0.00 0.00 0.00 53 1026.5
20260505034536 67 63 2.0 6.0 0.00 0.00 0.00 54 1026.8
20260505033059 66 315 2.0 8.0 0.00 0.00 0.00 55 1027.0
20260505031537 66 360 3.0 6.0 0.00 0.00 0.00 56 1027.1
20260505030032 66 51 2.0 6.0 0.00 0.00 0.00 57 1027.1
20260505024529 64 355 3.0 5.0 0.00 0.00 0.00 59 1027.2
20260505023028 64 81 2.0 5.0 0.00 0.00 0.00 60 1027.3
20260505021525 63 32 2.0 5.0 0.00 0.00 0.00 61 1027.5
20260505020021 62 46 2.0 6.0 0.00 0.00 0.00 67 1027.6
20260505014518 61 360 4.0 8.0 0.00 0.00 0.00 68 1027.6
20260505013013 59 49 2.0 9.0 0.00 0.00 0.00 71 1027.7
20260505011509 57 67 2.0 5.0 0.00 0.00 0.00 78 1027.7
20260505010004 53 65 1.0 4.0 0.00 0.00 0.00 87 1027.7
20260505004602 50 92 0.0 0.0 0.00 0.00 0.00 93 1027.8
20260505003059 49 92 0.0 0.0 0.00 0.00 0.00 93 1027.9
20260505001553 47 92 0.0 0.0 0.00 0.00 0.00 93 1027.7
20260505000050 45 80 0.0 0.0 0.00 0.00 0.00 93 1027.5
20260504234611 43 84 0.0 0.0 0.00 0.00 0.00 92 1027.5
20260504233043 43 86 0.0 0.0 0.00 0.00 0.00 92 1027.4
20260504231551 43 90 0.0 0.0 0.00 0.00 0.00 91 1027.3
20260504230039 43 90 0.0 0.0 0.00 0.00 0.00 91 1027.2
20260504224539 43 90 0.0 0.0 0.00 0.00 0.00 91 1027.1
20260504223039 43 90 0.0 0.0 0.00 0.00 0.00 91 1026.9
20260504221536 43 90 0.0 0.0 0.00 0.00 0.00 90 1026.9
20260504220025 43 90 0.0 0.0 0.00 0.00 0.00 90 1026.9
20260504214533 44 91 0.0 0.0 0.00 0.01 0.00 90 1026.8
20260504213028 44 91 0.0 0.0 0.00 0.01 0.00 90 1026.7
20260504211522 44 91 0.0 0.0 0.00 0.01 0.00 90 1026.7
20260504210021 44 92 0.0 0.0 0.00 0.01 0.00 91 1026.8
20260504204549 43 91 0.0 0.0 0.00 0.01 0.00 90 1026.8
20260504203024 43 91 0.0 0.0 0.00 0.01 0.00 90 1026.9
20260504201518 43 91 0.0 0.0 0.00 0.01 0.00 90 1026.7
20260504200016 43 92 0.0 0.0 0.00 0.01 0.00 88 1026.5
20260504194513 44 92 0.0 0.0 0.00 0.01 0.00 89 1026.5
20260504193021 44 92 0.0 0.0 0.00 0.01 0.00 88 1026.6
20260504191510 45 92 0.0 0.0 0.00 0.01 0.00 89 1026.6
20260504190010 45 92 0.0 0.0 0.00 0.01 0.00 87 1026.8
20260504184507 46 92 0.0 0.0 0.00 0.01 0.00 88 1026.7
20260504183005 45 92 0.0 0.0 0.00 0.01 0.00 88 1026.7
20260504181508 45 92 0.0 0.0 0.00 0.01 0.00 87 1026.7
20260504180001 46 92 0.0 0.0 0.00 0.01 0.00 87 1026.8
20260504174600 46 92 0.0 0.0 0.00 0.01 0.00 86 1026.9
20260504173101 47 92 0.0 0.0 0.00 0.01 0.00 86 1026.8
20260504171557 47 92 0.0 0.0 0.00 0.01 0.00 83 1026.8
20260504081529 67 111 4.0 7.0 0.00 0.01 0.01 55 1025.8
20260504044602 64 109 3.0 9.0 0.00 0.01 0.01 62 1027.0